EW7114 Weather Reports


Display with metric or nautical units.
time (UTC)temp
F
wind
direction
speed
MPH
gust
MPH
rain 1hr
in
rain 24hr
in
rain mn
in
humidity
%
barometer
mb
20260903145520 60 165 7.0 9.0 0.00 0.00 0.00 39 1006.1
20260903145019 59 147 6.0 7.0 0.00 0.00 0.00 43 1006.1
20260903144517 58 153 5.0 9.0 0.00 0.00 0.00 44 1006.1
20260903144016 57 190 5.0 9.0 0.00 0.00 0.00 45 1006.1
20260903143516 57 143 5.0 7.0 0.00 0.00 0.00 46 1006.0
20260903143014 56 158 5.0 8.0 0.00 0.00 0.00 47 1006.1
20260903142511 55 159 4.0 7.0 0.00 0.00 0.00 52 1006.1
20260903142010 54 170 3.0 5.0 0.00 0.00 0.00 49 1006.1
20260903141508 53 198 3.0 5.0 0.00 0.00 0.00 47 1006.1
20260903141010 51 161 3.0 5.0 0.00 0.00 0.00 50 1006.1
20260903140506 50 161 3.0 5.0 0.00 0.00 0.00 45 1006.1
20260903140004 47 147 3.0 5.0 0.00 0.00 0.00 30 1006.0
20260903135502 45 146 3.0 6.0 0.00 0.00 0.00 19 1006.0
20260903135001 43 192 1.0 5.0 0.00 0.00 0.00 19 1005.9
20260903134559 43 176 2.0 5.0 0.00 0.00 0.00 20 1005.9
20260903134059 43 176 1.0 3.0 0.00 0.00 0.00 17 1005.8
20260903133556 43 1 2.0 3.0 0.00 0.00 0.00 22 1005.8
20260903133055 43 12 0.0 3.0 0.00 0.00 0.00 16 1005.7
20260903132553 43 12 0.0 3.0 0.00 0.00 0.00 15 1005.5
20260903132051 43 21 0.0 7.0 0.00 0.00 0.00 14 1005.5
20260903131550 42 77 0.0 7.0 0.00 0.00 0.00 26 1005.4
20260903131051 43 163 1.0 2.0 0.00 0.00 0.00 28 1005.3
20260903130550 42 163 1.0 3.0 0.00 0.00 0.00 21 1005.1
20260903130109 42 163 1.0 4.0 0.00 0.00 0.00 21 1005.0
20260903125544 42 163 1.0 4.0 0.00 0.00 0.00 23 1005.0
20260903125046 42 163 0.0 2.0 0.00 0.00 0.00 19 1005.0
20260903124541 41 163 1.0 2.0 0.00 0.00 0.00 21 1004.9
20260903124039 41 163 0.0 4.0 0.00 0.00 0.00 24 1004.9
20260903123538 41 163 2.0 5.0 0.00 0.00 0.00 30 1004.9
20260903123037 42 163 3.0 5.0 0.00 0.00 0.00 28 1004.9
20260903122538 42 163 3.0 5.0 0.00 0.00 0.00 28 1004.8
20260903122034 42 189 3.0 5.0 0.00 0.00 0.00 30 1004.8
20260903121540 43 189 0.0 3.0 0.00 0.00 0.00 19 1004.6
20260903121030 42 189 0.0 3.0 0.00 0.00 0.00 21 1004.6
20260903120532 42 189 0.0 3.0 0.00 0.00 0.00 25 1004.5
20260903120030 42 189 0.0 1.0 0.00 0.00 0.00 22 1004.5
20260903115526 42 189 0.0 2.0 0.00 0.00 0.00 18 1004.5
20260903115025 42 189 0.0 3.0 0.00 0.00 0.00 17 1004.4
20260903114524 41 189 0.0 3.0 0.00 0.00 0.00 16 1004.3
20260903114021 41 189 0.0 2.0 0.00 0.00 0.00 15 1004.4
20260903113521 41 189 0.0 4.0 0.00 0.00 0.00 17 1004.3
20260903113027 41 189 1.0 4.0 0.00 0.00 0.00 24 1004.3
20260903112517 42 189 1.0 4.0 0.00 0.00 0.00 27 1004.3
20260903112018 44 99 0.0 0.0 0.00 0.00 0.00 15 1004.2
20260903111514 44 99 0.0 2.0 0.00 0.00 0.00 10 1004.2
20260903111013 44 99 0.0 4.0 0.00 0.00 0.00 7 1004.1
20260903110512 43 99 0.0 2.0 0.00 0.00 0.00 16 1004.0
20260903110017 43 99 0.0 3.0 0.00 0.00 0.00 23 1003.9
20260903105508 43 234 1.0 3.0 0.00 0.00 0.00 26 1003.9
20260903105009 43 234 0.0 3.0 0.00 0.00 0.00 31 1003.8
20260903104506 43 234 0.0 5.0 0.00 0.00 0.00 34 1003.8
20260903104004 44 234 3.0 5.0 0.00 0.00 0.00 32 1003.8
20260903103505 45 120 0.0 3.0 0.00 0.00 0.00 26 1003.7
20260903103001 46 120 1.0 3.0 0.00 0.00 0.00 21 1003.7
20260903102559 45 120 0.0 4.0 0.00 0.00 0.00 18 1003.6
20260903102103 45 120 0.0 4.0 0.00 0.00 0.00 15 1003.6
20260903101605 45 219 0.0 0.0 0.00 0.00 0.00 13 1003.5
20260903101057 44 219 0.0 1.0 0.00 0.00 0.00 12 1003.5
20260903100554 43 219 0.0 4.0 0.00 0.00 0.00 25 1003.4
20260903100053 43 219 0.0 8.0 0.00 0.00 0.00 36 1003.4
20260903095551 43 224 4.0 8.0 0.00 0.00 0.00 38 1003.3
20260903095050 44 201 2.0 7.0 0.00 0.00 0.00 47 1003.2
20260903094554 47 201 2.0 7.0 0.00 0.00 0.00 50 1003.2
20260903094047 48 105 2.0 6.0 0.00 0.00 0.00 46 1003.1
20260903093547 48 105 1.0 6.0 0.00 0.00 0.00 43 1003.1
20260903093047 48 202 0.0 4.0 0.00 0.00 0.00 46 1003.0
20260903092546 48 202 0.0 5.0 0.00 0.00 0.00 41 1003.1
20260903092045 48 146 0.0 5.0 0.00 0.00 0.00 45 1003.0
20260903091543 47 146 1.0 5.0 0.00 0.00 0.00 49 1002.9
20260903091046 47 265 0.0 3.0 0.00 0.00 0.00 48 1002.9
20260903090542 47 265 1.0 3.0 0.00 0.00 0.00 53 1002.8
20260903090041 48 265 1.0 4.0 0.00 0.00 0.00 53 1002.7
20260903085540 49 265 0.0 4.0 0.00 0.00 0.00 53 1002.6
20260903085040 50 265 1.0 3.0 0.00 0.00 0.00 50 1002.7
20260903084540 51 265 0.0 6.0 0.00 0.00 0.00 53 1002.7
20260903084040 51 265 0.0 6.0 0.00 0.00 0.00 54 1002.6
20260903083539 52 265 0.0 0.0 0.00 0.00 0.00 54 1002.7
20260903083039 52 265 0.0 0.0 0.00 0.00 0.00 49 1002.6
20260903082537 51 265 0.0 3.0 0.00 0.00 0.00 53 1002.5
20260903082037 49 265 1.0 3.0 0.00 0.00 0.00 54 1002.6
20260903081542 48 265 1.0 3.0 0.00 0.00 0.00 54 1002.6
20260903081036 47 265 1.0 3.0 0.00 0.00 0.00 54 1002.5
20260903080518 47 265 2.0 3.0 0.00 0.00 0.00 55 1002.5
20260903080035 48 265 0.0 4.0 0.00 0.00 0.00 55 1002.4
20260903075535 50 265 2.0 4.0 0.00 0.00 0.00 54 1002.3
20260903075033 52 103 0.0 0.0 0.00 0.00 0.00 53 1002.3
20260903074534 52 103 0.0 0.0 0.00 0.00 0.00 53 1002.3
20260903074035 53 103 0.0 0.0 0.00 0.00 0.00 54 1002.3
20260903073530 53 103 0.0 0.0 0.00 0.00 0.00 54 1002.2
20260903073031 52 103 0.0 0.0 0.00 0.00 0.00 54 1002.2
20260903072529 51 103 0.0 4.0 0.00 0.00 0.00 54 1002.1
20260903072034 51 103 0.0 4.0 0.00 0.00 0.00 54 1002.0
20260903071528 50 239 0.0 5.0 0.00 0.00 0.00 54 1001.9
20260903071026 51 239 0.0 7.0 0.00 0.00 0.00 54 1001.9
20260903070524 54 234 3.0 5.0 0.00 0.00 0.00 52 1001.7
20260903070033 56 234 2.0 5.0 0.00 0.00 0.00 49 1001.7
20260903065523 58 234 2.0 5.0 0.00 0.00 0.00 47 1001.8
20260903065021 57 234 0.0 8.0 0.00 0.00 0.00 49 1001.7
20260903064521 58 228 5.0 8.0 0.00 0.00 0.00 50 1001.7
20260903064019 59 97 0.0 3.0 0.00 0.00 0.00 51 1001.6
20260903063518 60 97 0.0 3.0 0.00 0.00 0.00 46 1001.7
20260903063016 62 97 1.0 3.0 0.00 0.00 0.00 45 1001.6
20260903062516 62 97 1.0 3.0 0.00 0.00 0.00 42 1001.4
20260903062018 62 132 0.0 3.0 0.00 0.00 0.00 43 1001.4
20260903061515 62 132 2.0 4.0 0.00 0.00 0.00 44 1001.4
20260903061012 63 132 2.0 4.0 0.00 0.00 0.00 45 1001.4
20260903060512 64 143 3.0 5.0 0.00 0.00 0.00 44 1001.4
20260903060012 64 61 1.0 5.0 0.00 0.00 0.00 41 1001.3
20260903055510 64 329 2.0 8.0 0.00 0.00 0.00 41 1001.2
20260903055009 64 21 3.0 6.0 0.00 0.00 0.00 42 1001.2
20260903054529 63 62 0.0 5.0 0.00 0.00 0.00 41 1001.3
20260903054010 63 62 2.0 5.0 0.00 0.00 0.00 45 1001.2
20260903053509 63 212 1.0 5.0 0.00 0.00 0.00 44 1001.2
20260903053008 64 212 2.0 5.0 0.00 0.00 0.00 42 1001.2
20260903052508 64 350 2.0 4.0 0.00 0.00 0.00 43 1001.2
20260903052008 64 259 0.0 2.0 0.00 0.00 0.00 41 1001.2
20260903051508 65 330 0.0 2.0 0.00 0.00 0.00 41 1001.3
20260903051011 65 330 0.0 4.0 0.00 0.00 0.00 41 1001.4
20260903050507 65 330 2.0 4.0 0.00 0.00 0.00 39 1001.4
20260903050009 66 5 0.0 1.0 0.00 0.00 0.00 39 1001.4
20260903045510 66 9 0.0 2.0 0.00 0.00 0.00 39 1001.5
20260903045007 66 18 0.0 2.0 0.00 0.00 0.00 42 1001.4
20260903044507 66 14 0.0 4.0 0.00 0.00 0.00 38 1001.6
20260903044007 65 5 2.0 4.0 0.00 0.00 0.00 38 1001.6
20260903043506 65 307 2.0 4.0 0.00 0.00 0.00 37 1001.6
20260903043009 65 310 2.0 6.0 0.00 0.00 0.00 38 1001.6
20260903042506 65 310 3.0 6.0 0.00 0.00 0.00 39 1001.6
20260903042106 65 318 4.0 6.0 0.00 0.00 0.00 39 1001.5
20260903041506 66 318 4.0 6.0 0.00 0.00 0.00 38 1001.5
20260903041006 66 307 2.0 6.0 0.00 0.00 0.00 39 1001.4
20260903040505 67 307 4.0 8.0 0.00 0.00 0.00 36 1001.4
20260903040008 69 278 5.0 8.0 0.00 0.00 0.00 35 1001.3
20260903035505 70 328 2.0 6.0 0.00 0.00 0.00 33 1001.2
20260903035004 70 16 2.0 6.0 0.00 0.00 0.00 33 1001.1
20260903034504 70 326 2.0 5.0 0.00 0.00 0.00 33 1001.1
20260903034004 70 3 3.0 10.0 0.00 0.00 0.00 36 1001.1
20260903033503 70 330 4.0 10.0 0.00 0.00 0.00 31 1001.1
20260903033003 69 1 6.0 9.0 0.00 0.00 0.00 30 1001.1
20260903032504 70 100 2.0 6.0 0.00 0.00 0.00 25 1001.0
20260903032003 71 163 3.0 8.0 0.00 0.00 0.00 23 1000.8
20260903031503 71 187 4.0 10.0 0.00 0.00 0.00 23 1000.8
20260903031006 72 197 7.0 12.0 0.00 0.00 0.00 21 1000.7
20260903030503 72 198 7.0 13.0 0.00 0.00 0.00 22 1000.6
20260903030009 72 178 5.0 10.0 0.00 0.00 0.00 22 1000.5
20260903025502 72 175 7.0 11.0 0.00 0.00 0.00 21 1000.3
20260903025002 73 170 6.0 13.0 0.00 0.00 0.00 20 1000.3
20260903024503 73 195 8.0 15.0 0.00 0.00 0.00 20 1000.3
20260903024001 72 172 9.0 15.0 0.00 0.00 0.00 21 1000.3
20260903023501 71 199 9.0 12.0 0.00 0.00 0.00 21 1000.3
20260903023002 71 187 8.0 12.0 0.00 0.00 0.00 21 1000.2
20260903022502 71 181 7.0 16.0 0.00 0.00 0.00 22 1000.2
20260903022002 71 244 11.0 16.0 0.00 0.00 0.00 21 1000.1
20260903021502 69 188 7.0 11.0 0.00 0.00 0.00 23 1000.1
20260903021001 70 174 5.0 9.0 0.00 0.00 0.00 23 1000.2
20260903020502 70 171 6.0 9.0 0.00 0.00 0.00 23 1000.2
20260903020100 71 197 5.0 8.0 0.00 0.00 0.00 23 1000.2
20260903015600 71 174 6.0 8.0 0.00 0.00 0.00 22 1000.2
20260903015100 72 169 5.0 7.0 0.00 0.00 0.00 23 1000.1
20260903014600 73 184 5.0 9.0 0.00 0.00 0.00 22 1000.1
20260903014100 74 191 5.0 14.0 0.00 0.00 0.00 22 1000.1
20260903013559 75 203 7.0 19.0 0.00 0.00 0.00 20 1000.2
20260903013105 76 212 11.0 19.0 0.00 0.00 0.00 19 1000.2
20260903012600 76 211 10.0 16.0 0.00 0.00 0.00 19 1000.2
20260903012100 76 222 7.0 11.0 0.00 0.00 0.00 21 1000.2
20260903011606 76 215 4.0 10.0 0.00 0.00 0.00 23 1000.3
20260903011058 77 201 5.0 12.0 0.00 0.00 0.00 22 1000.3
20260903010557 77 192 8.0 20.0 0.00 0.00 0.00 20 1000.3
20260903010111 78 192 11.0 20.0 0.00 0.00 0.00 19 1000.3
20260903005556 78 184 12.0 16.0 0.00 0.00 0.00 20 1000.2
20260903005055 78 135 12.0 19.0 0.00 0.00 0.00 20 1000.1
20260903004559 78 158 11.0 16.0 0.00 0.00 0.00 22 1000.1
20260903004055 79 168 10.0 20.0 0.00 0.00 0.00 22 1000.1
20260903003554 79 148 12.0 20.0 0.00 0.00 0.00 21 1000.1
20260903003056 80 157 14.0 21.0 0.00 0.00 0.00 20 1000.2
20260903002553 81 139 12.0 20.0 0.00 0.00 0.00 20 1000.2
20260903002054 81 168 14.0 23.0 0.00 0.00 0.00 19 1000.3
20260903001553 81 153 17.0 20.0 0.00 0.00 0.00 21 1000.2
20260903001053 82 144 15.0 25.0 0.00 0.00 0.00 19 1000.3
20260903000552 81 153 20.0 25.0 0.00 0.00 0.00 20 1000.2
20260903000053 81 154 15.0 24.0 0.00 0.00 0.00 21 1000.2
20260902235551 81 142 16.0 24.0 0.00 0.00 0.00 20 1000.3
20260902235053 81 182 17.0 24.0 0.00 0.00 0.00 20 1000.3
20260902234548 81 130 16.0 25.0 0.00 0.00 0.00 20 1000.4
20260902234049 81 163 19.0 25.0 0.00 0.00 0.00 20 1000.4
20260902233547 80 169 15.0 29.0 0.00 0.00 0.00 21 1000.5
20260902233047 80 154 17.0 30.0 0.00 0.00 0.00 21 1000.5
20260902232545 79 174 15.0 27.0 0.00 0.00 0.00 22 1000.5
20260902232046 79 129 16.0 24.0 0.00 0.00 0.00 21 1000.5
20260902231550 80 163 15.0 23.0 0.00 0.00 0.00 21 1000.5
20260902231048 81 197 15.0 23.0 0.00 0.00 0.00 21 1000.6
20260902230547 81 158 15.0 26.0 0.00 0.00 0.00 21 1000.6
20260902230044 82 178 18.0 22.0 0.00 0.00 0.00 20 1000.6
20260902225544 80 176 14.0 22.0 0.00 0.00 0.00 22 1000.6
20260902225044 80 176 13.0 26.0 0.00 0.00 0.00 22 1000.6
20260902224543 79 157 17.0 26.0 0.00 0.00 0.00 22 1000.6
20260902224042 80 136 17.0 29.0 0.00 0.00 0.00 22 1000.6
20260902223542 80 157 20.0 29.0 0.00 0.00 0.00 21 1000.6
20260902223041 81 143 18.0 28.0 0.00 0.00 0.00 22 1000.7
20260902222541 80 184 15.0 24.0 0.00 0.00 0.00 21 1000.7
20260902222043 80 170 15.0 23.0 0.00 0.00 0.00 22 1000.9
20260902221539 80 160 17.0 24.0 0.00 0.00 0.00 23 1000.8
20260902221039 81 149 15.0 24.0 0.00 0.00 0.00 22 1001.0
20260902220539 81 148 17.0 25.0 0.00 0.00 0.00 22 1001.0
20260902220040 81 188 16.0 23.0 0.00 0.00 0.00 22 1001.0
20260902215536 82 150 14.0 30.0 0.00 0.00 0.00 22 1001.1
20260902215038 82 151 18.0 32.0 0.00 0.00 0.00 22 1001.1
20260902214538 81 139 11.0 21.0 0.00 0.00 0.00 22 1001.2
20260902214035 81 181 13.0 24.0 0.00 0.00 0.00 22 1001.3
20260902213635 81 201 15.0 24.0 0.00 0.00 0.00 22 1001.4
20260902213033 80 194 16.0 31.0 0.00 0.00 0.00 22 1001.4
20260902212533 80 197 20.0 31.0 0.00 0.00 0.00 23 1001.5
20260902212033 81 169 12.0 20.0 0.00 0.00 0.00 23 1001.3
20260902211532 81 193 12.0 24.0 0.00 0.00 0.00 23 1001.5
20260902211032 82 186 16.0 25.0 0.00 0.00 0.00 22 1001.7
20260902210534 81 204 14.0 22.0 0.00 0.00 0.00 23 1001.5
20260902210036 81 158 14.0 25.0 0.00 0.00 0.00 23 1001.5
20260902205530 81 206 14.0 25.0 0.00 0.00 0.00 24 1001.6
20260902205030 82 195 12.0 24.0 0.00 0.00 0.00 22 1001.5
20260902204539 81 197 16.0 24.0 0.00 0.00 0.00 25 1001.6
20260902204029 80 161 15.0 22.0 0.00 0.00 0.00 23 1001.7
20260902203527 81 174 14.0 24.0 0.00 0.00 0.00 24 1001.7
20260902203027 81 194 14.0 29.0 0.00 0.00 0.00 25 1001.7
20260902202526 81 168 16.0 26.0 0.00 0.00 0.00 26 1001.7
20260902202026 81 201 18.0 23.0 0.00 0.00 0.00 24 1001.8
20260902201530 81 138 14.0 25.0 0.00 0.00 0.00 25 1001.7
20260902201024 80 178 9.0 26.0 0.00 0.00 0.00 25 1001.7
20260902200526 81 176 17.0 26.0 0.00 0.00 0.00 25 1002.0
20260902200024 81 148 16.0 22.0 0.00 0.00 0.00 25 1002.0
20260902195526 81 185 15.0 25.0 0.00 0.00 0.00 25 1002.1
20260902195021 80 194 16.0 25.0 0.00 0.00 0.00 26 1002.1
20260902194521 79 152 18.0 24.0 0.00 0.00 0.00 26 1002.2
20260902194024 79 159 16.0 24.0 0.00 0.00 0.00 27 1002.2
20260902193519 80 180 15.0 22.0 0.00 0.00 0.00 26 1002.3
20260902193019 79 187 12.0 23.0 0.00 0.00 0.00 26 1002.3
20260902192518 80 197 18.0 27.0 0.00 0.00 0.00 26 1002.5
20260902192017 80 167 17.0 27.0 0.00 0.00 0.00 27 1002.6
20260902191520 79 170 17.0 25.0 0.00 0.00 0.00 27 1002.6
20260902191016 79 173 14.0 29.0 0.00 0.00 0.00 27 1002.6
20260902190517 79 154 21.0 29.0 0.00 0.00 0.00 27 1002.5
20260902190016 79 201 14.0 26.0 0.00 0.00 0.00 27 1002.6
20260902185515 79 211 20.0 27.0 0.00 0.00 0.00 28 1002.8
20260902185014 79 195 16.0 27.0 0.00 0.00 0.00 28 1002.8
20260902184513 79 185 17.0 24.0 0.00 0.00 0.00 29 1002.8
20260902184013 79 160 12.0 26.0 0.00 0.00 0.00 27 1002.8
20260902183511 79 182 18.0 26.0 0.00 0.00 0.00 29 1002.9
20260902183010 78 168 11.0 24.0 0.00 0.00 0.00 29 1003.0
20260902182509 78 207 15.0 22.0 0.00 0.00 0.00 30 1003.2
20260902182009 78 190 13.0 23.0 0.00 0.00 0.00 30 1003.2
20260902181509 78 182 12.0 25.0 0.00 0.00 0.00 31 1003.2
20260902181008 78 189 14.0 26.0 0.00 0.00 0.00 31 1003.3
20260902180506 77 208 16.0 30.0 0.00 0.00 0.00 31 1003.4
20260902180007 77 190 20.0 30.0 0.00 0.00 0.00 34 1003.4
20260902175506 77 159 16.0 23.0 0.00 0.00 0.00 34 1003.3
20260902175010 77 161 18.0 29.0 0.00 0.00 0.00 33 1003.4
20260902174505 77 184 20.0 29.0 0.00 0.00 0.00 32 1003.5
20260902174008 77 151 19.0 33.0 0.00 0.00 0.00 34 1003.4
20260902173504 76 159 15.0 33.0 0.00 0.00 0.00 34 1003.4
20260902173005 77 192 13.0 29.0 0.00 0.00 0.00 35 1003.4
20260902172504 76 195 20.0 30.0 0.00 0.00 0.00 33 1003.5
20260902172004 76 198 19.0 30.0 0.00 0.00 0.00 33 1003.4
20260902171502 76 181 16.0 31.0 0.00 0.00 0.00 35 1003.4
20260902171004 76 192 19.0 27.0 0.00 0.00 0.00 34 1003.4
20260902170504 76 174 19.0 27.0 0.00 0.00 0.00 35 1003.4
20260902170002 77 159 18.0 29.0 0.00 0.00 0.00 35 1003.4
20260902165501 76 166 17.0 32.0 0.00 0.00 0.00 36 1003.3
20260902165003 76 201 21.0 32.0 0.00 0.00 0.00 35 1003.4
20260902164607 76 187 22.0 33.0 0.00 0.00 0.00 35 1003.3
20260902164100 75 178 22.0 33.0 0.00 0.00 0.00 36 1003.1
20260902163559 75 184 25.0 33.0 0.00 0.00 0.00 35 1003.1
20260902163059 75 136 19.0 33.0 0.00 0.00 0.00 37 1003.2
20260902162557 75 170 20.0 31.0 0.00 0.00 0.00 39 1003.1
20260902162059 75 179 23.0 31.0 0.00 0.00 0.00 39 1003.2
20260902161602 75 191 19.0 30.0 0.00 0.00 0.00 39 1003.2
20260902161057 75 159 22.0 32.0 0.00 0.00 0.00 38 1003.1
20260902160559 74 172 23.0 29.0 0.00 0.00 0.00 39 1003.3
20260902160054 74 172 22.0 34.0 0.00 0.00 0.00 40 1003.2
20260902155554 74 152 23.0 35.0 0.00 0.00 0.00 40 1003.3
20260902155053 74 144 22.0 31.0 0.00 0.00 0.00 41 1003.3
20260902154609 73 141 22.0 31.0 0.00 0.00 0.00 41 1003.3
20260902154052 73 145 23.0 30.0 0.00 0.00 0.00 41 1003.4
20260902153551 74 157 19.0 30.0 0.00 0.00 0.00 41 1003.5
20260902153051 74 165 21.0 27.0 0.00 0.00 0.00 41 1003.4
20260902152553 73 166 20.0 30.0 0.00 0.00 0.00 41 1003.5
20260902152049 73 152 20.0 30.0 0.00 0.00 0.00 42 1003.6
20260902151552 73 149 22.0 30.0 0.00 0.00 0.00 42 1003.7
20260902151046 72 161 21.0 28.0 0.00 0.00 0.00 44 1003.7
20260902150546 72 138 14.0 23.0 0.00 0.00 0.00 45 1003.6
20260902150046 72 181 16.0 24.0 0.00 0.00 0.00 44 1003.7